Time,TemperatureF,DewpointF,PressureIn,WindDirection,WindDirectionDegrees,WindSpeedMPH,WindSpeedGustMPH,Humidity,HourlyPrecipIn,Conditions,Clouds,dailyrainin,SoftwareType,DateUTC
2013-06-08 00:01:00,66.7,66.1,29.65,ENE,65,1.0,5.0,98,0.00,,,1.83,Wunderground v.1.15,2013-06-08 04:01:00,
2013-06-08 00:02:00,66.7,66.1,29.65,NW,313,1.0,8.0,98,0.00,,,1.83,Wunderground v.1.15,2013-06-08 04:02:00,
2013-06-08 00:03:00,66.7,65.8,29.65,NW,313,1.0,8.0,97,0.00,,,1.83,Wunderground v.1.15,2013-06-08 04:03:00,
2013-06-08 00:08:00,66.6,66.0,29.65,NNE,28,1.0,8.0,98,0.00,,,1.83,Wunderground v.1.15,2013-06-08 04:08:00,
2013-06-08 00:14:00,66.6,66.0,29.65,SW,230,1.0,8.0,98,0.00,,,1.83,Wunderground v.1.15,2013-06-08 04:14:00,
2013-06-08 00:20:00,66.5,65.9,29.66,North,360,1.0,8.0,98,0.00,,,1.83,Wunderground v.1.15,2013-06-08 04:20:00,
2013-06-08 00:26:00,66.5,65.6,29.66,ESE,119,1.0,8.0,97,0.00,,,1.83,Wunderground v.1.15,2013-06-08 04:26:00,
2013-06-08 00:32:00,66.4,65.5,29.66,NNW,348,1.0,8.0,97,0.00,,,1.83,Wunderground v.1.15,2013-06-08 04:32:00,
2013-06-08 00:38:00,66.3,65.4,29.66,NNW,337,1.0,8.0,97,0.00,,,1.83,Wunderground v.1.15,2013-06-08 04:38:00,
2013-06-08 00:43:00,66.3,65.4,29.67,North,351,1.0,8.0,97,0.00,,,1.83,Wunderground v.1.15,2013-06-08 04:43:00,
2013-06-08 00:49:00,66.3,65.4,29.67,NNE,26,1.0,8.0,97,0.00,,,1.83,Wunderground v.1.15,2013-06-08 04:49:00,
2013-06-08 00:55:00,66.3,65.4,29.67,NW,309,1.0,8.0,97,0.00,,,1.83,Wunderground v.1.15,2013-06-08 04:55:00,
2013-06-08 01:01:00,66.3,65.4,29.68,NNW,328,1.0,8.0,97,0.00,,,1.83,Wunderground v.1.15,2013-06-08 05:01:00,
2013-06-08 01:06:00,66.3,65.4,29.68,East,82,1.0,8.0,97,0.00,,,0.00,Wunderground v.1.15,2013-06-08 05:06:00,
2013-06-08 01:12:00,66.4,65.5,29.68,NNE,19,1.0,3.0,97,0.00,,,0.00,Wunderground v.1.15,2013-06-08 05:12:00,
2013-06-08 01:18:00,66.4,65.5,29.68,NNE,19,0.0,3.0,97,0.00,,,0.00,Wunderground v.1.15,2013-06-08 05:18:00,
2013-06-08 01:24:00,66.3,65.4,29.69,WNW,293,1.0,3.0,97,0.00,,,0.00,Wunderground v.1.15,2013-06-08 05:24:00,
2013-06-08 01:29:00,66.3,65.4,29.68,WNW,294,1.0,3.0,97,0.00,,,0.00,Wunderground v.1.15,2013-06-08 05:29:00,
2013-06-08 01:34:00,66.3,65.4,29.69,NE,49,1.0,3.0,97,0.00,,,0.00,Wunderground v.1.15,2013-06-08 05:34:00,
2013-06-08 01:40:00,66.2,65.3,29.69,WNW,296,1.0,3.0,97,0.00,,,0.00,Wunderground v.1.15,2013-06-08 05:40:00,
2013-06-08 01:46:00,66.2,65.3,29.70,North,3,0.0,3.0,97,0.00,,,0.00,Wunderground v.1.15,2013-06-08 05:46:00,
2013-06-08 01:51:00,66.1,65.2,29.70,North,3,0.0,3.0,97,0.00,,,0.00,Wunderground v.1.15,2013-06-08 05:51:00,
2013-06-08 01:57:00,66.1,65.2,29.70,WSW,258,1.0,3.0,97,0.00,,,0.00,Wunderground v.1.15,2013-06-08 05:57:00,
2013-06-08 02:02:00,66.0,65.1,29.70,WSW,258,0.0,1.0,97,0.00,,,0.00,Wunderground v.1.15,2013-06-08 06:02:00,
2013-06-08 02:07:00,65.9,65.0,29.70,NNE,29,0.0,2.0,97,0.00,,,0.00,Wunderground v.1.15,2013-06-08 06:07:00,
2013-06-08 02:13:00,65.9,65.0,29.71,ESE,119,1.0,1.0,97,0.00,,,0.00,Wunderground v.1.15,2013-06-08 06:13:00,
2013-06-08 02:19:00,65.9,65.0,29.71,NW,317,0.0,2.0,97,0.00,,,0.00,Wunderground v.1.15,2013-06-08 06:19:00,
2013-06-08 02:25:00,65.9,65.3,29.72,North,355,0.0,2.0,98,0.00,,,0.00,Wunderground v.1.15,2013-06-08 06:25:00,
2013-06-08 02:31:00,65.9,65.3,29.72,NE,55,0.0,1.0,98,0.00,,,0.00,Wunderground v.1.15,2013-06-08 06:31:00,
2013-06-08 02:37:00,65.9,65.3,29.72,NE,55,0.0,1.0,98,0.00,,,0.00,Wunderground v.1.15,2013-06-08 06:37:00,
2013-06-08 02:43:00,65.9,65.3,29.73,NE,55,0.0,1.0,98,0.00,,,0.00,Wunderground v.1.15,2013-06-08 06:43:00,
2013-06-08 02:49:00,65.8,64.9,29.73,NE,55,0.0,1.0,97,0.00,,,0.00,Wunderground v.1.15,2013-06-08 06:49:00,
2013-06-08 02:54:00,65.8,64.9,29.73,NE,55,0.0,1.0,97,0.00,,,0.00,Wunderground v.1.15,2013-06-08 06:54:00,
2013-06-08 03:00:00,65.7,64.8,29.73,NE,55,0.0,1.0,97,0.00,,,0.00,Wunderground v.1.15,2013-06-08 07:00:00,
2013-06-08 03:06:00,65.7,64.8,29.74,NE,55,0.0,1.0,97,0.00,,,0.00,Wunderground v.1.15,2013-06-08 07:06:00,
2013-06-08 03:12:00,65.6,64.7,29.74,NE,55,0.0,1.0,97,0.00,,,0.00,Wunderground v.1.15,2013-06-08 07:12:00,
2013-06-08 03:18:00,65.7,64.8,29.75,NE,55,0.0,1.0,97,0.00,,,0.00,Wunderground v.1.15,2013-06-08 07:18:00,
2013-06-08 03:24:00,65.6,64.7,29.75,NE,55,0.0,1.0,97,0.00,,,0.00,Wunderground v.1.15,2013-06-08 07:24:00,
2013-06-08 03:30:00,65.6,64.7,29.75,NE,55,0.0,1.0,97,0.00,,,0.00,Wunderground v.1.15,2013-06-08 07:30:00,
2013-06-08 03:36:00,65.5,64.6,29.75,NE,55,0.0,1.0,97,0.00,,,0.00,Wunderground v.1.15,2013-06-08 07:36:00,
2013-06-08 03:42:00,65.5,64.6,29.75,NE,55,0.0,1.0,97,0.00,,,0.00,Wunderground v.1.15,2013-06-08 07:42:00,
2013-06-08 03:48:00,65.6,64.7,29.75,NE,55,0.0,1.0,97,0.00,,,0.00,Wunderground v.1.15,2013-06-08 07:48:00,
2013-06-08 03:54:00,65.5,64.6,29.76,NE,55,0.0,1.0,97,0.00,,,0.00,Wunderground v.1.15,2013-06-08 07:54:00,
2013-06-08 04:00:00,65.5,64.6,29.76,NE,55,0.0,1.0,97,0.00,,,0.00,Wunderground v.1.15,2013-06-08 08:00:00,
2013-06-08 04:05:00,65.4,64.5,29.77,NE,55,0.0,1.0,97,0.00,,,0.00,Wunderground v.1.15,2013-06-08 08:05:00,
2013-06-08 04:11:00,65.4,64.5,29.77,NE,55,0.0,0.0,97,0.00,,,0.00,Wunderground v.1.15,2013-06-08 08:11:00,
2013-06-08 04:17:00,65.3,64.4,29.78,NE,55,0.0,0.0,97,0.00,,,0.00,Wunderground v.1.15,2013-06-08 08:17:00,
2013-06-08 04:23:00,65.3,64.4,29.78,NE,55,0.0,0.0,97,0.00,,,0.00,Wunderground v.1.15,2013-06-08 08:23:00,
2013-06-08 04:29:00,65.2,64.3,29.78,NE,55,0.0,0.0,97,0.00,,,0.00,Wunderground v.1.15,2013-06-08 08:29:00,
2013-06-08 04:35:00,65.2,64.3,29.78,NE,55,0.0,0.0,97,0.00,,,0.00,Wunderground v.1.15,2013-06-08 08:35:00,
2013-06-08 04:41:00,65.1,64.2,29.78,NE,55,0.0,0.0,97,0.00,,,0.00,Wunderground v.1.15,2013-06-08 08:41:00,
2013-06-08 04:46:00,65.0,64.1,29.79,NE,55,0.0,0.0,97,0.00,,,0.00,Wunderground v.1.15,2013-06-08 08:46:00,
2013-06-08 04:52:00,65.0,64.1,29.80,NE,55,0.0,1.0,97,0.00,,,0.00,Wunderground v.1.15,2013-06-08 08:52:00,
2013-06-08 04:58:00,64.9,64.0,29.80,NE,55,0.0,2.0,97,0.00,,,0.00,Wunderground v.1.15,2013-06-08 08:58:00,
2013-06-08 05:03:00,64.9,64.0,29.80,NE,55,0.0,0.0,97,0.00,,,0.00,Wunderground v.1.15,2013-06-08 09:03:00,
2013-06-08 05:09:00,64.8,63.9,29.81,NE,55,0.0,0.0,97,0.00,,,0.00,Wunderground v.1.15,2013-06-08 09:09:00,
2013-06-08 05:15:00,64.8,63.9,29.81,NE,55,0.0,0.0,97,0.00,,,0.00,Wunderground v.1.15,2013-06-08 09:15:00,
2013-06-08 05:21:00,64.8,64.2,29.82,NE,55,0.0,0.0,98,0.00,,,0.00,Wunderground v.1.15,2013-06-08 09:21:00,
2013-06-08 05:27:00,64.8,64.2,29.82,NE,55,0.0,0.0,98,0.00,,,0.00,Wunderground v.1.15,2013-06-08 09:27:00,
2013-06-08 05:32:00,64.8,64.2,29.82,NE,55,0.0,0.0,98,0.00,,,0.00,Wunderground v.1.15,2013-06-08 09:32:00,
2013-06-08 05:38:00,64.8,64.2,29.83,NE,55,0.0,0.0,98,0.00,,,0.00,Wunderground v.1.15,2013-06-08 09:38:00,
2013-06-08 05:44:00,64.8,64.2,29.83,NE,55,0.0,0.0,98,0.00,,,0.00,Wunderground v.1.15,2013-06-08 09:44:00,
2013-06-08 05:50:00,64.8,64.2,29.83,NE,55,0.0,0.0,98,0.00,,,0.00,Wunderground v.1.15,2013-06-08 09:50:00,
2013-06-08 05:56:00,64.9,64.3,29.83,NE,55,0.0,1.0,98,0.00,,,0.00,Wunderground v.1.15,2013-06-08 09:56:00,
2013-06-08 06:02:00,64.9,64.3,29.84,NE,55,0.0,0.0,98,0.00,,,0.00,Wunderground v.1.15,2013-06-08 10:02:00,
2013-06-08 06:08:00,65.0,64.4,29.84,NE,55,0.0,0.0,98,0.00,,,0.00,Wunderground v.1.15,2013-06-08 10:08:00,
2013-06-08 06:14:00,65.0,64.4,29.84,WSW,257,0.0,1.0,98,0.00,,,0.00,Wunderground v.1.15,2013-06-08 10:14:00,
2013-06-08 06:20:00,65.1,64.5,29.84,WSW,257,0.0,1.0,98,0.00,,,0.00,Wunderground v.1.15,2013-06-08 10:20:00,
2013-06-08 06:26:00,65.1,64.5,29.84,WSW,257,0.0,0.0,98,0.00,,,0.00,Wunderground v.1.15,2013-06-08 10:26:00,
2013-06-08 06:31:00,65.1,64.5,29.84,WSW,257,0.0,0.0,98,0.00,,,0.00,Wunderground v.1.15,2013-06-08 10:31:00,
2013-06-08 06:37:00,65.1,64.5,29.85,WSW,257,0.0,0.0,98,0.00,,,0.00,Wunderground v.1.15,2013-06-08 10:37:00,
2013-06-08 06:43:00,65.1,64.5,29.85,WSW,257,0.0,1.0,98,0.00,,,0.00,Wunderground v.1.15,2013-06-08 10:43:00,
2013-06-08 06:49:00,65.1,64.5,29.85,WSW,257,0.0,1.0,98,0.00,,,0.00,Wunderground v.1.15,2013-06-08 10:49:00,
2013-06-08 06:55:00,65.1,64.5,29.85,WSW,257,0.0,0.0,98,0.00,,,0.00,Wunderground v.1.15,2013-06-08 10:55:00,
2013-06-08 07:01:00,65.1,64.5,29.85,WSW,257,0.0,0.0,98,0.00,,,0.00,Wunderground v.1.15,2013-06-08 11:01:00,
2013-06-08 07:07:00,65.1,64.5,29.85,WSW,257,0.0,1.0,98,0.00,,,0.00,Wunderground v.1.15,2013-06-08 11:07:00,
2013-06-08 07:12:00,65.1,64.5,29.85,WSW,257,0.0,1.0,98,0.00,,,0.00,Wunderground v.1.15,2013-06-08 11:12:00,
2013-06-08 07:17:00,65.2,64.6,29.86,WSW,257,0.0,1.0,98,0.00,,,0.00,Wunderground v.1.15,2013-06-08 11:17:00,
2013-06-08 07:23:00,65.2,64.6,29.86,WSW,257,0.0,1.0,98,0.00,,,0.00,Wunderground v.1.15,2013-06-08 11:23:00,
2013-06-08 07:29:00,65.2,64.3,29.86,WSW,257,0.0,1.0,97,0.00,,,0.00,Wunderground v.1.15,2013-06-08 11:29:00,
2013-06-08 07:35:00,65.1,64.2,29.86,WSW,257,0.0,1.0,97,0.00,,,0.00,Wunderground v.1.15,2013-06-08 11:35:00,
2013-06-08 07:41:00,65.1,64.2,29.86,WSW,257,0.0,1.0,97,0.00,,,0.00,Wunderground v.1.15,2013-06-08 11:41:00,
2013-06-08 07:47:00,65.1,64.2,29.86,WSW,257,0.0,1.0,97,0.00,,,0.00,Wunderground v.1.15,2013-06-08 11:47:00,
2013-06-08 07:53:00,65.2,64.3,29.87,WSW,257,0.0,1.0,97,0.00,,,0.00,Wunderground v.1.15,2013-06-08 11:53:00,
2013-06-08 07:58:00,65.2,64.3,29.87,WSW,257,0.0,1.0,97,0.00,,,0.00,Wunderground v.1.15,2013-06-08 11:58:00,
2013-06-08 08:05:00,65.2,64.6,29.87,WSW,257,0.0,1.0,98,0.00,,,0.00,Wunderground v.1.15,2013-06-08 12:05:00,
2013-06-08 08:10:00,65.3,64.7,29.87,WSW,257,0.0,0.0,98,0.00,,,0.00,Wunderground v.1.15,2013-06-08 12:10:00,
2013-06-08 08:16:00,65.4,64.8,29.87,WSW,257,0.0,0.0,98,0.00,,,0.00,Wunderground v.1.15,2013-06-08 12:16:00,
2013-06-08 08:22:00,65.6,64.7,29.87,West,260,0.0,0.0,97,0.00,,,0.00,Wunderground v.1.15,2013-06-08 12:22:00,
2013-06-08 08:28:00,65.5,64.6,29.87,West,260,0.0,1.0,97,0.00,,,0.00,Wunderground v.1.15,2013-06-08 12:28:00,
2013-06-08 08:34:00,65.5,64.6,29.87,West,260,0.0,0.0,97,0.00,,,0.01,Wunderground v.1.15,2013-06-08 12:34:00,
2013-06-08 08:40:00,65.7,64.8,29.88,West,260,0.0,1.0,97,0.00,,,0.01,Wunderground v.1.15,2013-06-08 12:40:00,
2013-06-08 08:46:00,65.7,64.8,29.88,West,260,0.0,1.0,97,0.00,,,0.01,Wunderground v.1.15,2013-06-08 12:46:00,
2013-06-08 08:52:00,65.9,65.0,29.88,West,260,0.0,0.0,97,0.00,,,0.01,Wunderground v.1.15,2013-06-08 12:52:00,
2013-06-08 08:57:00,66.0,65.1,29.88,West,260,0.0,0.0,97,0.00,,,0.01,Wunderground v.1.15,2013-06-08 12:57:00,
2013-06-08 09:02:00,66.1,65.2,29.89,West,260,0.0,1.0,97,0.00,,,0.01,Wunderground v.1.15,2013-06-08 13:02:00,
2013-06-08 09:08:00,66.1,65.2,29.89,West,260,0.0,1.0,97,0.00,,,0.01,Wunderground v.1.15,2013-06-08 13:08:00,
2013-06-08 09:14:00,66.2,65.3,29.89,West,260,0.0,1.0,97,0.00,,,0.01,Wunderground v.1.15,2013-06-08 13:14:00,
2013-06-08 09:20:00,66.3,65.4,29.90,West,260,0.0,1.0,97,0.00,,,0.01,Wunderground v.1.15,2013-06-08 13:20:00,
2013-06-08 09:26:00,66.4,65.5,29.90,West,260,0.0,2.0,97,0.00,,,0.01,Wunderground v.1.15,2013-06-08 13:26:00,
2013-06-08 09:32:00,66.4,65.5,29.90,West,260,0.0,1.0,97,0.00,,,0.01,Wunderground v.1.15,2013-06-08 13:32:00,
2013-06-08 09:37:00,66.5,65.6,29.91,West,260,0.0,1.0,97,0.00,,,0.01,Wunderground v.1.15,2013-06-08 13:37:00,
2013-06-08 09:43:00,66.6,65.7,29.91,West,260,0.0,1.0,97,0.00,,,0.01,Wunderground v.1.15,2013-06-08 13:43:00,
2013-06-08 09:48:00,66.6,65.4,29.92,ESE,117,0.0,2.0,96,0.00,,,0.01,Wunderground v.1.15,2013-06-08 13:48:00,
2013-06-08 09:54:00,66.7,65.5,29.91,NNE,22,0.0,1.0,96,0.00,,,0.01,Wunderground v.1.15,2013-06-08 13:54:00,
2013-06-08 09:59:00,66.9,65.7,29.91,NNE,22,0.0,1.0,96,0.00,,,0.01,Wunderground v.1.15,2013-06-08 13:59:00,
2013-06-08 10:05:00,67.0,65.8,29.92,NNE,22,0.0,1.0,96,0.00,,,0.01,Wunderground v.1.15,2013-06-08 14:05:00,
2013-06-08 10:10:00,67.1,65.9,29.92,NNE,22,0.0,1.0,96,0.00,,,0.01,Wunderground v.1.15,2013-06-08 14:10:00,
2013-06-08 10:17:00,67.2,66.0,29.92,NNE,22,0.0,1.0,96,0.00,,,0.01,Wunderground v.1.15,2013-06-08 14:17:00,
2013-06-08 10:23:00,67.4,66.2,29.91,NNE,22,0.0,1.0,96,0.00,,,0.01,Wunderground v.1.15,2013-06-08 14:23:00,
2013-06-08 10:29:00,67.6,66.1,29.92,NNE,15,0.0,1.0,95,0.00,,,0.01,Wunderground v.1.15,2013-06-08 14:29:00,
2013-06-08 10:35:00,67.7,66.2,29.92,NNE,15,0.0,1.0,95,0.00,,,0.01,Wunderground v.1.15,2013-06-08 14:35:00,
2013-06-08 10:41:00,67.8,66.0,29.92,NNE,15,0.0,1.0,94,0.00,,,0.01,Wunderground v.1.15,2013-06-08 14:41:00,
2013-06-08 10:47:00,67.8,66.0,29.93,NNE,15,0.0,1.0,94,0.00,,,0.01,Wunderground v.1.15,2013-06-08 14:47:00,
2013-06-08 10:53:00,67.9,65.8,29.93,NNE,15,0.0,1.0,93,0.00,,,0.01,Wunderground v.1.15,2013-06-08 14:53:00,
2013-06-08 10:58:00,68.0,65.9,29.94,NNE,15,0.0,1.0,93,0.00,,,0.01,Wunderground v.1.15,2013-06-08 14:58:00,
2013-06-08 11:04:00,68.1,66.0,29.94,NNE,15,0.0,1.0,93,0.00,,,0.01,Wunderground v.1.15,2013-06-08 15:04:00,
2013-06-08 11:10:00,68.3,66.2,29.94,NNE,15,0.0,1.0,93,0.00,,,0.01,Wunderground v.1.15,2013-06-08 15:10:00,
2013-06-08 11:16:00,68.5,66.1,29.94,NNE,15,0.0,1.0,92,0.00,,,0.01,Wunderground v.1.15,2013-06-08 15:16:00,
2013-06-08 11:21:00,68.8,66.4,29.94,NNE,15,0.0,1.0,92,0.00,,,0.01,Wunderground v.1.15,2013-06-08 15:21:00,
2013-06-08 11:27:00,69.1,66.7,29.94,NNE,15,0.0,1.0,92,0.00,,,0.01,Wunderground v.1.15,2013-06-08 15:27:00,
2013-06-08 11:33:00,69.6,67.2,29.94,NNE,15,0.0,1.0,92,0.00,,,0.01,Wunderground v.1.15,2013-06-08 15:33:00,
2013-06-08 11:39:00,69.7,67.0,29.94,NNE,15,0.0,1.0,91,0.00,,,0.01,Wunderground v.1.15,2013-06-08 15:39:00,
2013-06-08 11:45:00,70.1,67.0,29.94,NNE,15,0.0,1.0,90,0.00,,,0.01,Wunderground v.1.15,2013-06-08 15:45:00,
2013-06-08 11:51:00,70.9,67.5,29.94,NNE,15,0.0,1.0,89,0.00,,,0.01,Wunderground v.1.15,2013-06-08 15:51:00,
2013-06-08 11:56:00,70.8,66.7,29.96,NNE,15,0.0,1.0,87,0.00,,,0.01,Wunderground v.1.15,2013-06-08 15:56:00,
2013-06-08 12:02:00,71.1,67.0,29.97,NNE,15,0.0,2.0,87,0.00,,,0.01,Wunderground v.1.15,2013-06-08 16:02:00,
2013-06-08 12:07:00,71.2,67.1,29.97,NNE,15,0.0,2.0,87,0.00,,,0.01,Wunderground v.1.15,2013-06-08 16:07:00,
2013-06-08 12:13:00,71.1,66.0,29.92,ENE,76,0.0,3.0,84,0.00,,,0.01,Wunderground v.1.15,2013-06-08 16:13:00,
2013-06-08 12:18:00,70.8,65.4,29.93,East,84,1.0,3.0,83,0.00,,,0.01,Wunderground v.1.15,2013-06-08 16:18:00,
2013-06-08 12:24:00,70.7,64.9,29.92,East,84,0.0,2.0,82,0.00,,,0.01,Wunderground v.1.15,2013-06-08 16:24:00,
2013-06-08 12:29:00,70.5,66.1,29.94,East,84,0.0,2.0,86,0.00,,,0.01,Wunderground v.1.15,2013-06-08 16:29:00,
2013-06-08 12:34:00,70.3,65.9,29.94,East,84,0.0,2.0,86,0.00,,,0.01,Wunderground v.1.15,2013-06-08 16:34:00,
2013-06-08 12:40:00,70.2,65.8,29.94,East,84,0.0,2.0,86,0.00,,,0.01,Wunderground v.1.15,2013-06-08 16:40:00,
2013-06-08 12:45:00,70.0,65.6,29.92,East,84,0.0,2.0,86,0.00,,,0.01,Wunderground v.1.15,2013-06-08 16:45:00,
2013-06-08 12:51:00,70.0,66.0,29.92,East,84,0.0,2.0,87,0.00,,,0.01,Wunderground v.1.15,2013-06-08 16:51:00,
2013-06-08 12:57:00,70.0,66.0,29.93,East,84,0.0,2.0,87,0.00,,,0.02,Wunderground v.1.15,2013-06-08 16:57:00,
2013-06-08 13:02:00,70.1,65.7,29.93,East,92,0.0,3.0,86,0.00,,,0.02,Wunderground v.1.15,2013-06-08 17:02:00,
2013-06-08 13:08:00,70.3,65.2,29.93,ESE,120,1.0,3.0,84,0.00,,,0.02,Wunderground v.1.15,2013-06-08 17:08:00,
2013-06-08 13:14:00,71.3,66.2,29.93,ESE,120,1.0,2.0,84,0.00,,,0.02,Wunderground v.1.15,2013-06-08 17:14:00,
2013-06-08 13:19:00,72.0,66.9,29.93,SE,134,1.0,3.0,84,0.00,,,0.02,Wunderground v.1.15,2013-06-08 17:19:00,
2013-06-08 13:24:00,73.2,68.1,29.93,ESE,111,2.0,3.0,84,0.00,,,0.02,Wunderground v.1.15,2013-06-08 17:24:00,
2013-06-08 13:30:00,73.5,67.3,29.93,South,176,2.0,4.0,81,0.00,,,0.02,Wunderground v.1.15,2013-06-08 17:30:00,
2013-06-08 13:35:00,73.7,67.5,29.93,South,176,2.0,2.0,81,0.00,,,0.02,Wunderground v.1.15,2013-06-08 17:35:00,
2013-06-08 13:41:00,74.2,68.0,29.92,South,175,1.0,1.0,81,0.00,,,0.02,Wunderground v.1.15,2013-06-08 17:41:00,
2013-06-08 13:47:00,74.9,67.9,29.92,SSE,153,1.0,3.0,79,0.00,,,0.02,Wunderground v.1.15,2013-06-08 17:47:00,
2013-06-08 13:53:00,75.4,68.1,29.92,South,181,2.0,3.0,78,0.00,,,0.02,Wunderground v.1.15,2013-06-08 17:53:00,
2013-06-08 13:59:00,75.8,68.1,29.92,SSE,152,2.0,3.0,77,0.00,,,0.02,Wunderground v.1.15,2013-06-08 17:59:00,
2013-06-08 14:05:00,76.0,67.9,29.92,SE,135,1.0,2.0,76,0.00,,,0.02,Wunderground v.1.15,2013-06-08 18:05:00,
2013-06-08 14:11:00,76.6,67.7,29.92,South,188,1.0,2.0,74,0.00,,,0.02,Wunderground v.1.15,2013-06-08 18:11:00,
2013-06-08 14:17:00,76.7,67.8,29.93,ESE,105,2.0,4.0,74,0.00,,,0.02,Wunderground v.1.15,2013-06-08 18:17:00,
2013-06-08 14:22:00,76.3,68.2,29.93,ESE,113,2.0,2.0,76,0.00,,,0.02,Wunderground v.1.15,2013-06-08 18:22:00,
2013-06-08 14:27:00,76.2,67.7,29.93,SSE,161,2.0,3.0,75,0.00,,,0.02,Wunderground v.1.15,2013-06-08 18:27:00,
2013-06-08 14:33:00,76.1,67.6,29.93,SE,144,2.0,3.0,75,0.00,,,0.02,Wunderground v.1.15,2013-06-08 18:33:00,
2013-06-08 14:39:00,76.1,67.6,29.93,SE,135,2.0,3.0,75,0.00,,,0.02,Wunderground v.1.15,2013-06-08 18:39:00,
2013-06-08 14:45:00,76.3,68.2,29.94,SE,140,2.0,2.0,76,0.00,,,0.02,Wunderground v.1.15,2013-06-08 18:45:00,
2013-06-08 14:51:00,76.8,68.3,29.94,SE,134,2.0,2.0,75,0.00,,,0.02,Wunderground v.1.15,2013-06-08 18:51:00,
2013-06-08 14:57:00,76.7,68.2,29.94,SE,135,2.0,3.0,75,0.00,,,0.02,Wunderground v.1.15,2013-06-08 18:57:00,
2013-06-08 15:02:00,76.6,68.1,29.94,SE,136,2.0,3.0,75,0.00,,,0.02,Wunderground v.1.15,2013-06-08 19:02:00,
2013-06-08 15:08:00,76.5,67.6,29.94,SE,126,2.0,5.0,74,0.00,,,0.02,Wunderground v.1.15,2013-06-08 19:08:00,
2013-06-08 15:14:00,76.0,67.5,29.94,ESE,115,2.0,3.0,75,0.00,,,0.02,Wunderground v.1.15,2013-06-08 19:14:00,
2013-06-08 15:20:00,76.0,67.5,29.94,SSE,150,2.0,4.0,75,0.00,,,0.02,Wunderground v.1.15,2013-06-08 19:20:00,
2013-06-08 15:26:00,76.2,67.7,29.94,SSE,162,3.0,4.0,75,0.00,,,0.02,Wunderground v.1.15,2013-06-08 19:26:00,
2013-06-08 15:32:00,76.2,67.7,29.94,SE,143,3.0,3.0,75,0.00,,,0.02,Wunderground v.1.15,2013-06-08 19:32:00,
2013-06-08 15:38:00,75.8,67.3,29.94,ESE,123,2.0,3.0,75,0.00,,,0.02,Wunderground v.1.15,2013-06-08 19:38:00,
2013-06-08 15:44:00,75.6,67.5,29.94,SE,140,2.0,3.0,76,0.00,,,0.02,Wunderground v.1.15,2013-06-08 19:44:00,
2013-06-08 15:49:00,75.3,67.6,29.94,East,79,2.0,3.0,77,0.00,,,0.02,Wunderground v.1.15,2013-06-08 19:49:00,
2013-06-08 15:55:00,75.2,67.5,29.94,East,79,1.0,3.0,77,0.00,,,0.02,Wunderground v.1.15,2013-06-08 19:55:00,
2013-06-08 16:00:00,75.3,67.6,29.94,SE,136,2.0,3.0,77,0.00,,,0.02,Wunderground v.1.15,2013-06-08 20:00:00,
2013-06-08 16:06:00,75.3,67.6,29.94,SE,136,2.0,4.0,77,0.00,,,0.02,Wunderground v.1.15,2013-06-08 20:06:00,
2013-06-08 16:12:00,75.3,67.6,29.94,SE,136,1.0,4.0,77,0.00,,,0.02,Wunderground v.1.15,2013-06-08 20:12:00,
2013-06-08 16:18:00,75.4,67.7,29.94,SE,125,2.0,4.0,77,0.00,,,0.02,Wunderground v.1.15,2013-06-08 20:18:00,
2013-06-08 16:24:00,75.3,67.6,29.95,ESE,120,2.0,4.0,77,0.00,,,0.02,Wunderground v.1.15,2013-06-08 20:24:00,
2013-06-08 16:30:00,75.2,67.9,29.95,SE,134,2.0,4.0,78,0.00,,,0.02,Wunderground v.1.15,2013-06-08 20:30:00,
2013-06-08 16:36:00,75.1,67.8,29.95,SE,132,2.0,4.0,78,0.00,,,0.02,Wunderground v.1.15,2013-06-08 20:36:00,
2013-06-08 16:42:00,75.2,68.2,29.95,SSE,161,3.0,4.0,79,0.00,,,0.02,Wunderground v.1.15,2013-06-08 20:42:00,
2013-06-08 16:48:00,75.2,67.9,29.95,SSE,149,2.0,4.0,78,0.00,,,0.02,Wunderground v.1.15,2013-06-08 20:48:00,
2013-06-08 16:54:00,74.9,67.2,29.95,SE,128,2.0,4.0,77,0.00,,,0.02,Wunderground v.1.15,2013-06-08 20:54:00,
2013-06-08 17:00:00,74.9,67.9,29.95,SSE,149,3.0,4.0,79,0.00,,,0.02,Wunderground v.1.15,2013-06-08 21:00:00,
2013-06-08 17:06:00,74.9,67.6,29.95,SE,128,2.0,4.0,78,0.00,,,0.02,Wunderground v.1.15,2013-06-08 21:06:00,
2013-06-08 17:11:00,74.8,67.5,29.95,SE,144,3.0,4.0,78,0.00,,,0.02,Wunderground v.1.15,2013-06-08 21:11:00,
2013-06-08 17:17:00,74.6,66.9,29.95,SE,139,3.0,4.0,77,0.00,,,0.02,Wunderground v.1.15,2013-06-08 21:17:00,
2013-06-08 17:22:00,74.4,67.5,29.95,SE,143,2.0,4.0,79,0.00,,,0.02,Wunderground v.1.15,2013-06-08 21:22:00,
2013-06-08 17:28:00,74.4,67.5,29.96,SSE,162,2.0,4.0,79,0.00,,,0.02,Wunderground v.1.15,2013-06-08 21:28:00,
2013-06-08 17:34:00,74.3,67.4,29.96,SSE,156,2.0,5.0,79,0.00,,,0.02,Wunderground v.1.15,2013-06-08 21:34:00,
2013-06-08 17:40:00,74.1,67.5,29.96,SSE,157,3.0,5.0,80,0.00,,,0.02,Wunderground v.1.15,2013-06-08 21:40:00,
2013-06-08 17:46:00,74.1,67.5,29.96,SE,144,3.0,4.0,80,0.00,,,0.02,Wunderground v.1.15,2013-06-08 21:46:00,
2013-06-08 17:52:00,74.0,67.8,29.97,SSE,151,3.0,4.0,81,0.00,,,0.02,Wunderground v.1.15,2013-06-08 21:52:00,
2013-06-08 17:58:00,74.0,67.8,29.97,SSW,198,2.0,6.0,81,0.00,,,0.02,Wunderground v.1.15,2013-06-08 21:58:00,
2013-06-08 18:03:00,73.9,67.7,29.97,SE,140,2.0,5.0,81,0.00,,,0.02,Wunderground v.1.15,2013-06-08 22:03:00,
2013-06-08 18:09:00,73.7,67.5,29.97,SSW,193,2.0,5.0,81,0.00,,,0.02,Wunderground v.1.15,2013-06-08 22:09:00,
2013-06-08 18:15:00,73.5,67.3,29.97,South,171,3.0,5.0,81,0.00,,,0.02,Wunderground v.1.15,2013-06-08 22:15:00,
2013-06-08 18:21:00,73.5,67.7,29.97,South,173,3.0,7.0,82,0.00,,,0.02,Wunderground v.1.15,2013-06-08 22:21:00,
2013-06-08 18:27:00,73.4,67.6,29.97,SSE,155,3.0,7.0,82,0.00,,,0.02,Wunderground v.1.15,2013-06-08 22:27:00,
2013-06-08 18:33:00,73.3,67.8,29.97,SE,142,2.0,5.0,83,0.00,,,0.02,Wunderground v.1.15,2013-06-08 22:33:00,
2013-06-08 18:39:00,73.2,67.7,29.98,South,182,2.0,5.0,83,0.00,,,0.02,Wunderground v.1.15,2013-06-08 22:39:00,
2013-06-08 18:44:00,73.0,67.5,29.98,SSE,167,2.0,5.0,83,0.00,,,0.02,Wunderground v.1.15,2013-06-08 22:44:00,
2013-06-08 18:49:00,73.0,67.5,29.98,SSE,156,2.0,5.0,83,0.00,,,0.02,Wunderground v.1.15,2013-06-08 22:49:00,
2013-06-08 18:55:00,72.9,67.4,29.98,South,171,2.0,5.0,83,0.00,,,0.02,Wunderground v.1.15,2013-06-08 22:55:00,
2013-06-08 19:02:00,72.8,67.7,29.98,SSE,160,3.0,5.0,84,0.00,,,0.02,Wunderground v.1.15,2013-06-08 23:02:00,
2013-06-08 19:07:00,72.8,67.7,29.98,SSW,193,2.0,5.0,84,0.00,,,0.02,Wunderground v.1.15,2013-06-08 23:07:00,
2013-06-08 19:13:00,72.8,68.0,29.99,SSW,193,2.0,4.0,85,0.00,,,0.02,Wunderground v.1.15,2013-06-08 23:13:00,
2013-06-08 19:19:00,72.7,67.9,29.99,SSW,193,2.0,4.0,85,0.00,,,0.02,Wunderground v.1.15,2013-06-08 23:19:00,
2013-06-08 19:25:00,72.6,67.8,29.99,SE,142,2.0,4.0,85,0.00,,,0.02,Wunderground v.1.15,2013-06-08 23:25:00,
2013-06-08 19:31:00,72.5,67.7,30.00,South,174,2.0,4.0,85,0.00,,,0.02,Wunderground v.1.15,2013-06-08 23:31:00,
2013-06-08 19:37:00,72.5,68.1,30.00,SSW,193,2.0,4.0,86,0.00,,,0.02,Wunderground v.1.15,2013-06-08 23:37:00,
2013-06-08 19:42:00,72.4,68.0,30.00,SSW,193,1.0,4.0,86,0.00,,,0.02,Wunderground v.1.15,2013-06-08 23:42:00,
2013-06-08 19:48:00,72.4,68.0,30.00,South,169,2.0,4.0,86,0.00,,,0.02,Wunderground v.1.15,2013-06-08 23:48:00,
2013-06-08 19:54:00,72.3,67.9,30.00,South,169,1.0,4.0,86,0.00,,,0.02,Wunderground v.1.15,2013-06-08 23:54:00,
2013-06-08 20:00:00,72.2,68.1,30.00,SSE,164,1.0,4.0,87,0.00,,,0.02,Wunderground v.1.15,2013-06-09 00:00:00,
2013-06-08 20:05:00,72.1,68.0,30.00,SSE,164,1.0,4.0,87,0.00,,,0.02,Wunderground v.1.15,2013-06-09 00:05:00,
2013-06-08 20:11:00,72.0,67.9,30.00,South,186,0.0,4.0,87,0.00,,,0.02,Wunderground v.1.15,2013-06-09 00:11:00,
2013-06-08 20:17:00,71.9,68.2,30.00,South,178,1.0,4.0,88,0.00,,,0.02,Wunderground v.1.15,2013-06-09 00:17:00,
2013-06-08 20:23:00,71.7,68.0,30.01,South,176,1.0,4.0,88,0.00,,,0.02,Wunderground v.1.15,2013-06-09 00:23:00,
2013-06-08 20:29:00,71.6,67.9,30.01,South,176,1.0,4.0,88,0.00,,,0.02,Wunderground v.1.15,2013-06-09 00:29:00,
2013-06-08 20:35:00,71.6,68.2,30.01,South,175,1.0,4.0,89,0.00,,,0.02,Wunderground v.1.15,2013-06-09 00:35:00,
2013-06-08 20:41:00,71.5,68.1,30.01,SSE,161,1.0,1.0,89,0.00,,,0.02,Wunderground v.1.15,2013-06-09 00:41:00,
2013-06-08 20:46:00,71.3,67.9,30.01,South,180,1.0,4.0,89,0.00,,,0.02,Wunderground v.1.15,2013-06-09 00:46:00,
2013-06-08 20:52:00,71.2,67.8,30.01,South,180,1.0,4.0,89,0.00,,,0.02,Wunderground v.1.15,2013-06-09 00:52:00,
2013-06-08 20:58:00,71.2,68.1,30.02,South,180,0.0,4.0,90,0.00,,,0.02,Wunderground v.1.15,2013-06-09 00:58:00,
2013-06-08 21:03:00,71.1,68.0,30.02,South,180,0.0,4.0,90,0.00,,,0.02,Wunderground v.1.15,2013-06-09 01:03:00,
2013-06-08 21:09:00,71.0,67.9,30.02,South,180,0.0,4.0,90,0.00,,,0.02,Wunderground v.1.15,2013-06-09 01:09:00,
2013-06-08 21:15:00,70.9,67.8,30.03,South,180,0.0,0.0,90,0.00,,,0.02,Wunderground v.1.15,2013-06-09 01:15:00,
2013-06-08 21:21:00,70.8,67.7,30.03,South,180,0.0,0.0,90,0.00,,,0.02,Wunderground v.1.15,2013-06-09 01:21:00,
2013-06-08 21:27:00,70.6,67.8,30.03,South,180,0.0,0.0,91,0.00,,,0.02,Wunderground v.1.15,2013-06-09 01:27:00,
2013-06-08 21:33:00,70.5,67.7,30.03,South,180,0.0,0.0,91,0.00,,,0.02,Wunderground v.1.15,2013-06-09 01:33:00,
2013-06-08 21:39:00,70.5,67.7,30.03,SSE,164,1.0,2.0,91,0.00,,,0.02,Wunderground v.1.15,2013-06-09 01:39:00,
2013-06-08 21:45:00,70.4,68.0,30.03,SSE,164,1.0,1.0,92,0.00,,,0.02,Wunderground v.1.15,2013-06-09 01:45:00,
2013-06-08 21:51:00,70.3,67.9,30.04,SSE,164,0.0,0.0,92,0.00,,,0.02,Wunderground v.1.15,2013-06-09 01:51:00,
2013-06-08 21:56:00,70.3,67.9,30.04,SSE,164,0.0,0.0,92,0.00,,,0.02,Wunderground v.1.15,2013-06-09 01:56:00,
2013-06-08 22:02:00,70.3,67.9,30.04,SSE,164,0.0,0.0,92,0.00,,,0.02,Wunderground v.1.15,2013-06-09 02:02:00,
2013-06-08 22:07:00,70.2,67.8,30.04,SSE,164,0.0,2.0,92,0.00,,,0.02,Wunderground v.1.15,2013-06-09 02:07:00,
2013-06-08 22:13:00,70.2,68.1,30.04,SSE,164,0.0,3.0,93,0.00,,,0.02,Wunderground v.1.15,2013-06-09 02:13:00,
2013-06-08 22:19:00,70.2,68.1,30.05,SSE,164,0.0,3.0,93,0.00,,,0.02,Wunderground v.1.15,2013-06-09 02:19:00,
2013-06-08 22:24:00,70.1,68.0,30.05,SSE,164,0.0,0.0,93,0.00,,,0.02,Wunderground v.1.15,2013-06-09 02:24:00,
2013-06-08 22:30:00,70.1,68.0,30.06,SSE,164,0.0,0.0,93,0.00,,,0.02,Wunderground v.1.15,2013-06-09 02:30:00,
2013-06-08 22:36:00,70.1,68.0,30.06,SSE,164,0.0,0.0,93,0.00,,,0.02,Wunderground v.1.15,2013-06-09 02:36:00,
2013-06-08 22:42:00,69.9,67.8,30.06,SSE,164,0.0,0.0,93,0.00,,,0.02,Wunderground v.1.15,2013-06-09 02:42:00,
2013-06-08 22:48:00,69.8,67.7,30.06,SSE,164,0.0,1.0,93,0.00,,,0.02,Wunderground v.1.15,2013-06-09 02:48:00,
2013-06-08 22:53:00,69.7,67.6,30.06,SSE,164,0.0,0.0,93,0.00,,,0.02,Wunderground v.1.15,2013-06-09 02:53:00,
2013-06-08 22:59:00,69.5,67.4,30.07,SSE,164,0.0,0.0,93,0.00,,,0.02,Wunderground v.1.15,2013-06-09 02:59:00,
2013-06-08 23:05:00,69.4,67.3,30.07,SSE,164,0.0,0.0,93,0.00,,,0.02,Wunderground v.1.15,2013-06-09 03:05:00,
2013-06-08 23:11:00,69.2,67.1,30.07,SSE,164,0.0,1.0,93,0.00,,,0.02,Wunderground v.1.15,2013-06-09 03:11:00,
2013-06-08 23:17:00,69.0,66.9,30.07,SSE,164,0.0,1.0,93,0.00,,,0.02,Wunderground v.1.15,2013-06-09 03:17:00,
2013-06-08 23:23:00,68.9,66.8,30.06,SSE,164,0.0,0.0,93,0.00,,,0.02,Wunderground v.1.15,2013-06-09 03:23:00,
2013-06-08 23:28:00,68.7,66.6,30.07,SSE,164,0.0,0.0,93,0.00,,,0.02,Wunderground v.1.15,2013-06-09 03:28:00,
2013-06-08 23:34:00,68.5,66.4,30.07,SSE,164,0.0,0.0,93,0.00,,,0.02,Wunderground v.1.15,2013-06-09 03:34:00,
2013-06-08 23:40:00,68.3,66.2,30.07,SSE,164,0.0,0.0,93,0.00,,,0.02,Wunderground v.1.15,2013-06-09 03:40:00,
2013-06-08 23:45:00,68.2,66.4,30.07,SSE,164,0.0,0.0,94,0.00,,,0.02,Wunderground v.1.15,2013-06-09 03:45:00,
2013-06-08 23:51:00,68.1,66.3,30.07,SSE,164,0.0,0.0,94,0.00,,,0.02,Wunderground v.1.15,2013-06-09 03:51:00,
2013-06-08 23:57:00,67.9,66.1,30.07,SSE,164,0.0,0.0,94,0.00,,,0.02,Wunderground v.1.15,2013-06-09 03:57:00,